San Diego Montgomery, CA

5:05 PM PDT on June 24, 2017 (GMT -0700)
Montgomery

Weather History for KMYF - February, 2013

Change the Weather History Date:

Saturday, February 9, 2013

  Actual Average Record
Temperature  
Mean Temperature 49 °F 56 °F  
Max Temperature 57 °F 65 °F 89 °F (2016)
Min Temperature 41 °F 46 °F 40 °F (2013)
Degree Days  
Heating Degree Days 16 9  
Month to date heating degree days 88  
Since 1 July heating degree days 904  
Cooling Degree Days 0 0  
Month to date cooling degree days 0  
Year to date cooling degree days 2  
Moisture  
Dew Point 39 °F    
Average Humidity 71    
Maximum Humidity 92    
Minimum Humidity 49    
Precipitation  
Precipitation 0.00 in 0.08 in 0.68 in (2009)
Month to date precipitation 0.50  
Year to date precipitation 3.18  
Sea Level Pressure  
Sea Level Pressure 30.04 in    
Wind  
Wind Speed 4 mph (SSW)    
Max Wind Speed 14 mph    
Max Gust Speed -    
Visibility 10 miles    
Events      
T = Trace of Precipitation, MM = Missing Value Source: NWS Daily Summary

Daily Weather History Graph

Daily Weather History Graph

Search for Another Location

Airport or City:

Trip Planner

Search our weather history database for the weather conditions in past years. The results will help you decide how hot, cold, wet, or windy it might be!

Date:

Astronomy

Feb. 09, 2013 Rise Set
Actual Time 6:37 AM PST 5:28 PM PST
Civil Twilight 6:11 AM PST 5:54 PM PST
Nautical Twilight 5:42 AM PST 6:23 PM PST
Astronomical Twilight 5:13 AM PST 6:52 PM PST
Moon 5:52 AM PST (2/9) 5:14 PM PST (2/9)
Length of Visible Light 11h 42m
Length of Day
10h 51m
Waning Crescent, 0% of the Moon is Illuminated
Feb 9
Waning Crescent
Feb 9
New
Feb 17
First Quarter
Feb 25
Full
Mar 4
Last Quarter

Hourly Weather History & Observations

Time (PST) Temp. Windchill Dew Point Humidity Pressure Visibility Wind Dir Wind Speed Gust Speed Precip Events Conditions
12:53 AM 42.1 °F 40.2 °F 39.9 °F 92% 29.96 in 10.0 mi ESE 3.5 mph - N/A   Clear
1:53 AM 42.1 °F 40.2 °F 39.0 °F 89% 29.95 in 10.0 mi East 3.5 mph - N/A   Clear
2:53 AM 44.1 °F 40.8 °F 39.9 °F 85% 29.95 in 10.0 mi ENE 5.8 mph - N/A   Overcast
3:53 AM 43.0 °F - 39.9 °F 89% 29.96 in 10.0 mi Calm Calm - N/A   Overcast
4:53 AM 42.1 °F - 39.0 °F 89% 29.96 in 10.0 mi Calm Calm - N/A   Partly Cloudy
5:53 AM 41.0 °F - 37.9 °F 89% 29.99 in 10.0 mi Calm Calm - N/A   Mostly Cloudy
6:53 AM 41.0 °F 39.0 °F 37.0 °F 86% 30.01 in 10.0 mi ESE 3.5 mph - N/A   Scattered Clouds
7:53 AM 44.1 °F 41.5 °F 39.9 °F 85% 30.04 in 10.0 mi SSE 4.6 mph - N/A   Scattered Clouds
8:53 AM 48.0 °F - 39.9 °F 74% 30.05 in 10.0 mi SSE 5.8 mph - N/A   Scattered Clouds
9:53 AM 51.1 °F - 39.9 °F 66% 30.07 in 10.0 mi Variable 3.5 mph - N/A   Scattered Clouds
10:19 AM 51.8 °F - 39.2 °F 62% 30.07 in 10.0 mi SSW 5.8 mph - N/A   Mostly Cloudy
10:53 AM 54.0 °F - 39.0 °F 57% 30.07 in 10.0 mi West 8.1 mph - N/A   Mostly Cloudy
11:53 AM 55.9 °F - 39.0 °F 53% 30.07 in 10.0 mi WSW 11.5 mph - N/A   Mostly Cloudy
12:53 PM 54.0 °F - 39.0 °F 57% 30.05 in 10.0 mi West 13.8 mph - N/A   Overcast
1:53 PM 57.0 °F - 39.9 °F 53% 30.05 in 10.0 mi West 8.1 mph - N/A   Mostly Cloudy
2:53 PM 55.9 °F - 37.0 °F 49% 30.05 in 10.0 mi West 10.4 mph - N/A   Mostly Cloudy
3:53 PM 55.9 °F - 39.0 °F 53% 30.05 in 10.0 mi West 9.2 mph - N/A   Scattered Clouds
4:53 PM 54.0 °F - 39.0 °F 57% 30.05 in 10.0 mi West 9.2 mph - N/A   Partly Cloudy
5:53 PM 52.0 °F - 39.0 °F 61% 30.06 in 10.0 mi West 5.8 mph - N/A   Partly Cloudy
6:53 PM 51.1 °F - 39.0 °F 63% 30.08 in 10.0 mi WSW 3.5 mph - N/A   Partly Cloudy
7:53 PM 50.0 °F - 39.0 °F 66% 30.09 in 10.0 mi Calm Calm - N/A   Partly Cloudy
8:53 PM 46.0 °F 44.8 °F 39.0 °F 76% 30.10 in 10.0 mi ESE 3.5 mph - N/A   Clear
9:53 PM 46.0 °F - 39.0 °F 76% 30.12 in 10.0 mi Calm Calm - N/A   Clear
10:53 PM 45.0 °F 42.6 °F 37.9 °F 76% 30.12 in 10.0 mi ESE 4.6 mph - N/A   Clear
11:53 PM 46.0 °F - 37.9 °F 73% 30.12 in 10.0 mi Calm Calm - N/A   Clear